STARLINK-11363, 62012

Orbit data source: Space-Track

STARLINK-11363, 62012 is a payload satellite owned by SpaceX/Seattle (US) in LEO that was launched on Mon, 18 Nov 2024 UTC via an FALCON 9 launch vehicle from the Air Force Western Test Range (AFWTR). Payloads include a variety of satellites, spacecraft, and rockets equipped with specific instruments for various scientific and technological missions. These include communications satellites like Starlink; space stations such as the ISS; scientific satellites like the Hubble; Earth observation satellites from companies like Planet Labs, Umbra, and HawkEye 360; GPS; miniature CubeSats for education and research; and military/defense satellites.

Not visible in the next 10 days
STARLINK-11363 details
Identifier
62012, 2024-213E
Orbit
LEO
Last TLE update14 hours ago
Origin
Flag of USSpaceX/Seattle (US)
ManufacturerSpaceX/Seattle
MissionOperational spacecraft
Bus & MotorSTARLINK V2M, Unknown motor
Mass730 kg wet, ~700 kg dry
Launch date (UTC)
2024-11-18 (2 weeks ago)
Launch vehicle
FALCON 9
Launch site
Air Force Western Test Range (AFWTR)
Object type
Payload
Rocket body
Debris
Shape & HBRUnknown
Radar Cross SectionLarge (>1 m²)

Expand to show TLE details & history

TLE from 14 hours ago
0 STARLINK-11363
1 62012U 24213E   24336.90673785  .00096954  00000-0  31084-3 0  9998
2 62012  53.1614 166.7556 0000988 124.9784 235.1336 15.90268331  3182
Epoch: 2024-12-01T21:45Z
Definitive object data (Epoch: 2024-12-01T21:45:42.15Z)
Latitude0.00002°
Longitude129.09176°
Altitude302.832 km
Speed7.727 km/s
True Right ascension11h 07m 01s
True Declination0° 00' 00"
Sunlit
Object was in daylight at TLE epoch
Visualization TLE readout
Latitude52.1242°
Longitude-160.57506°
Altitude307.046 km
Speed7.73 km/s
Apparent Right ascension18h 55m 49s
Apparent Declination10° 02' 10"
Sunlit
Object is in daylight
Visualization observer readout
Local Sidereal Time09:26:56
Azimuth43.621° NE
Elevation-29.018°
Doppler factor1
Orbital elements
Apogee altitude302.454 km
Perigee altitude301.134 km
Semi-major axis6,679.931 km
Eccentricity0.0000988
Inclination53.1614°
RAAN166.7556°
Arg. of periapsis124.9784°
True anomaly235.12431°
Mean anomaly235.1336°
Eccentric anomaly235.12896°
Mean motion3.97544 °/min
BSTAR0.00031084
Orbital period90.56 mins
Loading maneuver chart data...
Loading historical data...
Loading historical data...
Loading historical data...
Loading historical data...
Loading historical data...
Loading historical data...
Loading historical data...

STARLINK-11363 Visibility forecast

Observer location: undefined°, undefined

STARLINK-11363 is not visible in the next 10 days
Span
Click to sort rows by Start time (UTC) header in descending order
Start Az.
Max El. time (UTC)
Max El. Az.
Max El.
End time (UTC)
End Az.
|